CZ-6A DEB, 54949

Orbit data source: Space-Track

CZ-6A DEB, 54949 is space debris in SSO originally from a launch on Fri, 11 Nov 2022 UTC launched from the Taiyaun Space Center, China (TSC). Debris objects in space refer to the collection of defunct objects orbiting the Earth. Examples of debris include non-operational satellites, rocket bodies, and fragments generated from explosions, collisions, or faulty payload assembly.

Loading next visibility...
Identifier
54949, 2022-151SN
Orbit
SSO
Country
Flag of CNCN / PRC
Related business
Manufacturer
SAST
Mission
Spacecraft
Bus & Motor
Unknown
Mass
Unknown
Launch date (UTC)
2022-11-11 (4 years ago)
Launch vehicle
Unknown
Launch site
Taiyaun Space Center, China (TSC)
Object type
Payload
Rocket body
Debris
Shape & HBR
Unknown shape, 0.1 m
Radar Cross Section
Small (<0.1 m²)

Expand to show TLE details & history
Last TLE update: 2 days ago

TLE from 2 days ago
0 CZ-6A DEB
1 54949U 22151SN  26171.38633455  .00002407  00000-0  59276-3 0  9991
2 54949  98.6078 215.7369 0089548 332.9172  26.7365 14.50811035189549
Epoch: 2026-06-20T09:16Z
TLE epoch observation values (Epoch: 2026-06-20T09:16:19.305Z)
Latitude
0.00005°
Longitude
168.05475°
Altitude
669.275 km
Speed
7.552 km/s
True Right ascension
14h 22m 56s
True Declination
0° 00' 00"
Sunlit
Object was in full shadow at epoch
Visualization orbit readout
Latitude
Unknown
Longitude
Unknown
Altitude
Unknown
Speed
Unknown
Apparent Right ascension
Unknown
Apparent Declination
Unknown
Sunlit
N/A
Visualization observer readout
Local Sidereal Time
21:37:59
Azimuth
Unknown
Elevation
Unknown
Doppler factor
Unknown
Orbital elements
Apogee altitude
783.676 km
Perigee altitude
656.55 km
Semi-major axis
7,098.25 km
Eccentricity
0.00895
Inclination
98.6078°
RAAN
215.7369°
Arg. of periapsis
332.9172°
True anomaly
27.2028°
Mean anomaly
26.7365°
Eccentric anomaly
26.96918°
Mean motion
3.62924 °/min
Orbital period
99.19 mins
BSTAR
0.00059276
Loading maneuver chart data...
Computing Atmospheric mass density...
Loading historical data...
Loading historical data...
Loading historical data...
Loading historical data...
Loading historical data...
Loading historical data...
Loading historical data...

Documentation

Showing up to 5 results
|